Regional Weather Roundup
Issued by NWS

Home | Current Version | Previous Version | Text Only | Print | Product List | Glossary On
Versions: 1 2 3 4 5 6 7 8 9 10 11 12 13 14 15 16 17 18 19 20 21 22 23 24 25 26 27 28 29 30 31 32 33 34 35 36 37 38 39 40 41 42 43 44 45 46 47 48 49 50
000
ASUS43 KLOT 270808
RWRIL

ILLINOIS REGIONAL WEATHER ROUNDUP
NATIONAL WEATHER SERVICE CHICAGO/ROMEOVILLE IL
300 AM CDT FRI MAY 27 2016

NOTE: "FAIR" INDICATES FEW OR NO CLOUDS BELOW 12,000 FEET WITH NO
SIGNIFICANT WEATHER AND/OR OBSTRUCTIONS TO VISIBILITY.

* THESE STATIONS ARE NOT UNDER NWS QUALITY CONTROL. THEY ALSO MAY NOT
  REPORT WEATHER SUCH AS PRECIPITATION OR FOG.

ILZ001-002-007-009-015-016-024-270900-
NORTHWEST ILLINOIS

CITY           SKY/WX    TMP DP  RH WIND       PRES   REMARKS
MOLINE         HVY RAIN  65  60  84 S18G31    29.96R
STERLING*      CLOUDY    73  69  87 VRB6      29.87R
SAVANNA*       CLOUDY    67  64  90 SE6       29.84R
$$

ILZ003-004-008-010-011-017-018-270900-
NORTH CENTRAL ILLINOIS

CITY           SKY/WX    TMP DP  RH WIND       PRES   REMARKS
ROCKFORD       CLOUDY    70  65  84 S10       29.88S
FREEPORT*      CLOUDY    68  63  84 SE3       29.87S
ROCHELLE*      CLOUDY    70  68  91 S16       29.89R
DE KALB*       CLOUDY    69  67  93 S14       29.90R
$$

ILZ005-006-012>014-019>023-270900-
NORTHEAST ILLINOIS

CITY           SKY/WX    TMP DP  RH WIND       PRES   REMARKS
CHICAGO-OHARE  CLOUDY    70  67  90 S10       29.89S
CHICAGO-MIDWAY CLOUDY    71  64  78 S12       29.90S
AURORA         CLOUDY    71  66  84 S12       29.90R
LANSING*       CLOUDY    67  63  87 S6        29.93S
JOLIET*        CLOUDY    70  66  85 S5        29.90F
WAUKEGAN       PTCLDY    71  67  87 SW10      29.87S
DUPAGE AIRPORT CLOUDY    69  65  86 S12       29.89S
KANKAKEE*      CLOUDY    67  63  87 S9        29.92F
WHEELING       CLOUDY    71  67  87 S10       29.89S
MORRIS*        CLOUDY    70  64  82 S5        29.89F
ROMEOVILLE*    CLOUDY    68  63  83 S8        29.90F
NORTHERLY ISL    N/A     71  63  75 SW7         N/A
NORTHERLY ISL    N/A     71  63  75 SW7         N/A
$$

LMZ740>746-270900-
SOUTHERN LAKE MICHIGAN

STATION/POSITION SKY/WX   TEMP    WIND        PRES    VSBY  WAVE
                          AIR SEA DIR/SP/G                  HT/PER
                          (F)     (DEG/KT/KT) (MB)    (MI)  (FT/S)
SOUTHERN BUOY              55 50  170/ 10/ 12 1011.9R         1
WILMETTE HARBOR            65 58  220/  8/ 10   N/A           1/ 2
HARRISON CRIB              72     200/ 16/ 17   N/A
BURNHAM HARBOR             71     210/  7/ 11   N/A
CALUMET HARBOR                    190/  8/ 12   N/A
BURNS HARBOR               69     190/ 10/ 20 1013.5R
MICHIGAN CITY              69     170/  9/ 11   N/A
MICHIGAN CITY 6N           64 59  200/  8/ 10   N/A           1
ST. JOSEPH                 64 61  180/  6/  8   N/A           1
$$

ILZ025>027-034>036-040-047-049-050-058-095>099-270900-
WEST-CENTRAL ILLINOIS

CITY           SKY/WX    TMP DP  RH WIND       PRES   REMARKS
QUINCY         CLOUDY    64  62  93 W3        29.88R
GALESBURG*     RAIN      62  61  95 W12       29.89F
MACOMB*        LGT RAIN  63  63  99 N10       29.87F
JACKSONVILLE*  DRIZZLE   66  64  91 S3        29.89R
PITTSFIELD*    CLOUDY    65  64  97 SE6       29.90R
$$

ILZ028>032-037-038-041>044-048-051>054-059>061-270900-
CENTRAL ILLINOIS

CITY           SKY/WX    TMP DP  RH WIND       PRES   REMARKS
PONTIAC        CLOUDY    70  66  87 S10G16    29.90F
BLOOMINGTON    CLOUDY    67  66  96 S10       29.92F
DECATUR        CLOUDY    69  63  81 SW9       29.92F
PEORIA         CLOUDY    69  61  75 W8        29.88F
LACON*         CLOUDY    71  65  79 SW8       29.87F
LINCOLN*       CLOUDY    69  67  92 CALM      29.90F
SPRINGFIELD    CLOUDY    69  66  90 S8        29.90F
TAYLORVILLE    CLOUDY    67  64  89 S14       29.92S
$$

ILZ033-039-045-046-055>057-062-063-270900-
EAST-CENTRAL ILLINOIS

CITY           SKY/WX    TMP DP  RH WIND       PRES   REMARKS
CHAMPAIGN      CLOUDY    65  63  93 SE6       29.94S
RANTOUL*       CLOUDY    67  65  92 SE6       29.94S
MATTOON        MOCLDY    66  61  84 S7        29.92F
PARIS*         CLOUDY    65  64  97 CALM      29.96F
$$

ILZ079-100>102-270900-
SOUTHWEST ILLINOIS

CITY           SKY/WX    TMP DP  RH WIND       PRES   REMARKS
ALTON          RAIN      67  65  91 S6        29.90F
BELLEVILLE     CLOUDY    66  66 100 E3        29.90F
CAHOKIA*       CLOUDY    68  65  90 S3        29.89F
SPARTA*        CLOUDY    67  64  91 CALM      29.91F
$$

ILZ064>066-069>071-074>076-080>082-084>086-088>090-092>094-270900-
SOUTH-CENTRAL ILLINOIS

CITY           SKY/WX    TMP DP  RH WIND       PRES   REMARKS
CARBONDALE     CLOUDY    68  63  84 S5        29.89F
CAIRO*         MOCLDY    65  65  99 CALM      29.92F
EFFINGHAM*     CLOUDY    66  65  96 CALM      29.95S
MARION         CLOUDY    68  64  88 S8        29.92F
MT. VERNON     CLOUDY    63  59  88 E3        29.93F
CENTRALIA*     CLOUDY    66  65  96 CALM      29.92F
SALEM*         CLOUDY    68  64  87 SW3       29.92F
METROPOLIS*    LGT RAIN  66  66 100 CALM      29.94F
$$

ILZ067-068-072-073-078-083-087-091-270900-
SOUTHEAST ILLINOIS

CITY           SKY/WX    TMP DP  RH WIND       PRES   REMARKS
LAWRENCEVILLE  CLOUDY    67  64  90 SE6       29.96F
FLORA*         CLOUDY    67  64  90 SE7       29.94F
FAIRFIELD*     CLOUDY    65  64  96 CALM      29.93F
HARRISBURG*    LGT RAIN  66  65  94 CALM      29.94S
ROBINSON*      CLOUDY    65  64  96 SE3       29.97S
CARMI*         CLOUDY    65  64  95 SE9       29.96S
$$

ABBREVIATIONS USED IN REMARKS
   TC - TEMPERATURE IN CELSIUS
  WCI - WIND CHILL INDEX
   HX - HEAT INDEX
  VSB - VISIBILITY
$$




USA.gov is the U.S. government's official web portal to all federal, state and local government web resources and services.